Temp
24 24 24 24 23 23 23 22 22 22 22 22 21 21 21 21 21 21 21 21 20 20 20 20 20 20 20 20 20 20 20 20 20 20 20 19 19 19 19 19 19 19
24 24 24 24 23 23 23 22 22 22 22 21 21 21 21 21 21 21 21 21 21 20 20 20 20 20 20 20 20 20 20 20 20 20 20 19 19 19 19 19 19 19
24 24 24 23 23 23 22 22 22 22 21 21 21 21 21 21 21 21 21 21 21 21 20 20 20 20 20 20 20 20 20 20 20 20 20 19 19 19 19 19 19 19
24 24 24 23 23 23 22 22 22 22 21 21 21 21 21 21 21 21 21 21 21 21 21 20 20 20 20 20 20 20 20 20 20 20 20 19 19 19 19 19 19 19
24 24 24 23 23 23 22 22 22 22 21 22 22 21 21 21 21 21 21 21 21 21 21 21 21 20 20 20 20 20 20 20 20 20 20 19 19 19 19 19 19 19
24 24 24 23 23 23 22 22 22 22 22 22 22 21 21 21 21 21 21 21 21 21 21 21 21 21 21 20 20 20 20 20 20 20 20 19 19 19 19 19 19 19
24 24 24 23 23 23 22 22 22 22 22 22 22 21 21 21 21 22 22 21 21 21 21 21 21 21 21 21 20 20 20 20 20 20 20 19 19 19 19 19 19 19
24 24 24 23 23 23 22 22 22 22 22 22 22 22 22 22 22 22 22 22 21 21 21 21 21 21 21 21 21 20 20 20 20 20 20 19 19 19 19 19 19 19
24 24 23 23 23 23 22 22 22 22 23 22 22 22 22 22 22 22 22 22 22 22 22 21 21 21 21 21 21 21 20 20 20 20 20 19 19 19 19 19 19 18
24 24 23 23 23 23 22 22 22 23 23 23 23 22 22 22 22 22 22 22 22 22 22 22 22 21 21 21 21 21 20 20 20 20 20 20 19 19 19 19 19 18
24 24 23 23 23 23 23 22 23 23 23 23 23 22 22 22 22 22 22 22 22 22 22 22 21 21 21 21 21 21 21 20 20 20 20 20 19 19 19 19 19 19
24 24 23 23 23 23 23 22 23 23 23 23 22 22 22 22 22 22 22 22 22 22 22 21 21 21 21 21 21 21 21 20 20 20 20 20 19 19 19 19 19 19
24 23 23 23 23 23 23 23 23 23 23 22 22 22 23 23 22 22 22 22 21 21 21 21 21 21 21 21 21 21 21 21 20 20 20 19 19 19 19 19 19 19
23 23 23 23 23 23 23 23 23 23 23 22 22 22 23 22 22 22 22 21 21 21 21 21 21 21 21 21 21 21 21 21 20 20 20 19 19 19 19 19 19 19
22 23 24 24 23 23 23 23 23 23 22 22 22 22 22 22 22 22 22 21 21 21 21 21 21 21 21 21 21 21 21 21 20 20 20 19 19 19 19 19 19 19
22 24 24 23 23 23 23 23 23 23 23 22 23 23 22 22 22 22 22 21 21 21 21 21 21 21 21 21 21 21 21 21 20 20 20 19 19 19 19 19 19 19
23 23 23 23 22 23 23 23 23 23 23 23 23 23 23 22 22 22 22 22 21 21 21 21 21 21 21 21 21 21 21 20 20 20 20 19 19 19 19 19 19 19
22 23 23 21 21 22 23 23 23 23 23 23 23 23 23 22 22 22 22 22 22 21 21 21 22 22 22 21 21 21 21 20 20 20 20 19 19 19 19 18 18 18
22 22 21 20 20 22 23 23 23 23 23 23 23 23 23 22 22 22 22 22 22 22 21 22 22 22 22 21 21 21 21 20 20 20 19 19 19 19 19 18 18 18
22 21 20 20 21 22 23 23 23 23 23 23 23 23 23 22 22 22 22 22 22 22 21 22 22 22 22 21 21 21 20 20 20 19 19 19 19 19 19 18 18 18
21 20 20 20 21 22 23 23 23 23 23 23 23 23 23 22 22 22 22 22 22 22 21 22 22 22 21 21 21 20 20 20 19 19 19 19 19 18 18 18 18 18
20 20 20 21 22 22 23 23 23 23 23 23 23 23 23 22 22 22 22 22 22 22 21 21 21 21 21 20 20 20 19 19 19 19 18 18 18 18 18 18 17 17
20 20 21 22 22 23 23 23 23 23 23 23 23 23 23 22 22 22 22 22 22 21 21 21 21 21 20 20 19 19 19 19 18 18 18 18 18 18 18 17 17 17
21 20 21 22 22 23 24 24 24 24 23 23 23 23 23 23 22 22 22 22 22 21 21 21 20 20 20 19 19 19 18 18 18 17 17 17 18 18 17 17 17 16
21 20 21 22 22 23 24 24 24 24 23 23 23 23 23 23 22 22 22 21 21 21 21 20 20 19 19 19 18 18 17 17 17 17 17 17 17 16 16 16 16 17
21 21 21 22 23 24 24 24 24 23 23 23 23 23 23 22 21 21 21 21 21 20 20 19 19 19 18 18 18 17 17 17 17 17 17 17 16 16 16 16 17 17
Height
814 816 817 818 819 819 820 821 822 823 824 825 826 826 827 827 827 828 828 828 828 828 828 828 828 829 829 829 828 828 827 827 826 826 825 825 825 824 824 824 824 823
812 813 815 815 816 818 819 820 821 822 823 824 824 825 825 826 826 826 826 827 827 827 827 827 827 827 827 827 827 827 827 826 825 825 824 824 824 823 823 823 823 822
810 811 812 813 814 815 817 819 820 821 821 822 823 823 824 824 825 825 825 825 825 825 825 825 825 825 825 826 826 826 825 825 824 824 823 823 822 822 822 822 822 821
807 809 810 812 812 813 815 817 818 819 820 820 821 822 822 823 823 823 824 824 824 824 823 823 823 823 823 824 824 824 824 823 823 822 821 821 821 820 820 820 820 820
805 806 808 809 811 812 813 814 816 817 818 819 819 820 820 821 822 822 822 822 822 822 822 821 821 821 821 822 822 823 822 822 821 820 820 819 819 819 818 819 818 818
802 804 805 807 809 810 811 812 813 815 815 817 817 818 819 820 820 820 820 821 821 821 820 820 819 819 819 819 820 820 820 820 819 819 818 817 817 816 816 816 816 816
799 801 803 806 807 809 810 810 811 812 813 815 816 817 818 818 819 819 819 819 819 819 818 818 818 817 817 817 818 818 818 818 818 817 816 815 815 814 814 814 814 813
797 799 802 804 806 807 808 809 810 810 811 813 814 815 816 817 817 817 817 817 817 817 816 816 816 815 815 815 816 816 816 816 815 815 814 813 813 812 812 812 811 811
795 797 800 802 804 805 807 808 808 809 809 810 811 813 814 815 816 815 815 815 815 815 814 814 814 813 813 813 814 814 814 814 813 812 812 811 810 810 810 809 809 808
792 794 797 799 802 804 805 807 807 807 807 808 809 810 812 813 814 813 813 813 813 813 812 812 812 812 811 811 812 812 812 811 811 810 809 809 808 807 807 807 806 806
788 791 794 797 800 803 806 807 808 807 806 806 807 808 809 810 811 811 811 811 811 811 811 811 811 810 809 809 809 810 810 809 809 808 808 807 806 805 804 804 804 803
785 788 792 796 800 804 807 808 808 807 806 805 805 805 806 807 808 809 809 810 810 809 809 809 809 809 808 807 808 808 808 808 807 806 806 805 804 803 802 802 801 801
785 788 792 795 798 800 802 804 805 806 805 804 804 803 804 805 806 807 807 807 807 807 807 807 807 807 806 805 806 806 806 806 805 805 804 803 802 801 800 799 799 799
789 791 791 792 793 795 797 799 801 803 803 803 802 801 802 803 804 805 805 805 805 805 805 805 805 805 804 804 804 804 804 804 803 803 802 801 800 799 798 797 797 797
794 793 790 789 791 793 796 797 798 800 801 801 800 800 800 801 802 802 802 802 802 802 803 804 803 803 802 802 802 802 802 801 801 801 800 799 798 796 796 795 795 794
791 791 789 788 790 792 793 794 796 798 799 799 798 798 798 799 799 800 800 800 800 800 801 802 801 800 799 799 799 799 799 799 799 798 797 797 795 794 793 792 792 792
783 786 788 789 789 789 790 792 794 795 796 796 795 795 796 796 797 798 797 797 798 798 799 799 798 798 797 796 796 796 796 796 796 796 795 794 793 792 791 790 789 789
779 783 787 789 788 787 788 789 791 792 793 793 792 792 794 794 795 795 795 795 795 796 796 796 796 795 794 794 794 793 794 794 793 793 792 791 790 789 788 787 786 786
779 782 785 785 784 784 785 786 788 789 789 789 789 790 791 791 792 793 793 793 793 794 794 794 793 793 792 792 791 791 791 791 790 790 789 788 788 786 785 784 783 783
778 780 781 781 781 782 782 783 784 785 785 786 787 787 788 789 790 790 791 791 791 792 792 791 790 790 789 789 789 789 789 789 788 787 786 786 785 784 783 782 781 780
776 777 777 777 778 778 778 779 781 781 782 783 783 784 785 786 787 788 788 788 789 789 789 788 787 787 787 787 787 787 787 786 786 785 784 783 782 781 780 779 778 777
773 773 772 772 773 774 774 776 776 777 778 779 780 781 782 783 784 784 784 785 785 785 785 785 785 785 785 785 785 785 785 784 783 782 781 781 780 779 778 776 775 774
765 767 767 767 769 769 770 771 772 773 774 775 777 778 779 779 780 781 782 783 783 782 782 782 782 782 783 783 783 782 782 781 780 779 779 778 777 776 775 774 773 772
757 761 762 762 764 765 766 766 768 769 770 771 773 774 775 776 777 778 780 780 780 780 779 779 780 780 781 781 780 780 779 778 778 777 776 776 774 773 773 772 771 770
753 757 758 758 759 760 761 763 764 765 766 768 770 771 772 774 775 776 778 778 778 778 777 778 778 779 779 778 777 777 776 776 775 775 774 773 772 771 771 770 769 768
750 754 754 754 756 757 758 760 760 761 763 765 766 768 770 772 774 776 777 777 777 776 776 776 776 776 776 776 775 775 774 773 773 772 771 771 770 769 769 768 767 766
Wind_Speed
22 21 19 16 15 14 14 13 13 13 11 9 9 8 8 7 6 6 6 5 5 5 5 6 6 6 7 7 7 6 6 5 6 6 6 6 7 7 7 6 6 5
24 22 20 17 16 15 14 14 13 12 11 10 10 9 9 8 6 6 6 6 7 6 5 5 5 6 7 8 8 8 8 7 7 6 7 7 8 9 9 9 7 7
25 23 21 18 17 16 15 14 13 12 11 10 10 9 9 9 8 7 7 7 7 6 5 5 6 6 7 9 10 10 10 9 8 8 8 9 9 10 10 10 9 8
26 24 22 19 17 16 16 15 14 13 12 11 11 10 10 10 9 8 7 7 7 7 6 7 7 7 7 7 8 9 10 10 10 10 10 10 10 10 11 10 10 10
27 25 22 19 18 16 16 16 15 15 14 12 11 11 11 10 10 9 9 8 8 7 6 6 6 7 7 7 8 9 10 10 11 12 12 11 11 11 11 11 12 12
28 25 22 20 19 17 17 18 17 17 15 13 11 11 12 11 11 11 11 10 9 8 7 7 5 5 6 8 10 12 12 13 14 13 13 13 13 12 13 13 14 15
29 26 23 21 21 19 18 18 18 17 14 12 12 12 12 13 13 13 12 12 11 11 10 9 8 8 8 9 12 13 14 15 15 15 15 15 14 14 13 14 15 16
30 27 24 23 22 20 19 19 18 16 14 13 13 13 13 15 15 14 13 14 14 13 12 12 12 12 12 12 13 15 15 15 15 15 16 16 16 15 15 15 15 16
31 28 25 24 23 22 20 19 18 16 14 13 13 13 15 17 18 17 16 16 17 16 16 15 15 16 16 16 16 17 18 18 17 16 16 16 16 17 16 16 16 16
32 29 28 27 25 23 21 20 19 16 14 14 13 13 15 18 18 18 17 17 17 17 17 16 16 17 17 18 17 18 19 19 19 18 17 16 17 17 17 16 16 17
33 30 30 28 26 23 20 20 18 15 14 14 14 14 17 19 19 18 17 16 15 15 15 14 13 13 13 14 15 16 17 18 19 19 18 17 17 16 16 16 16 17
33 32 30 27 24 20 18 18 17 15 15 15 15 15 16 18 18 17 16 14 13 13 13 11 10 10 11 12 14 15 16 18 19 20 19 18 17 16 15 16 16 17
32 31 29 26 23 19 18 20 19 17 18 18 16 14 14 16 16 15 14 13 12 11 11 10 10 12 13 13 14 15 17 18 19 20 20 19 18 16 15 15 15 16
28 29 28 25 23 21 21 22 21 20 22 21 16 14 14 15 14 13 12 12 11 11 11 12 14 15 15 14 14 15 16 17 18 19 21 20 18 17 15 15 15 15
24 27 28 25 22 23 24 23 21 22 23 21 17 15 15 14 12 11 10 9 10 12 13 15 16 16 16 15 15 16 17 18 19 19 20 20 19 17 17 16 16 17
28 29 29 25 23 25 25 23 22 24 24 21 19 17 16 14 14 13 11 10 11 12 14 15 16 17 17 16 16 17 18 19 19 20 20 20 20 19 19 19 18 18
34 32 26 22 25 28 25 23 24 26 25 23 21 19 17 16 16 15 14 13 13 14 15 16 17 18 18 18 18 18 18 18 19 20 20 20 20 20 20 21 20 20
35 28 18 18 28 31 27 26 27 27 26 24 23 21 18 17 17 16 16 15 15 16 18 19 19 19 18 18 19 18 18 18 19 19 19 19 19 20 20 21 21 21
28 17 13 22 31 32 29 29 29 27 26 25 23 21 20 18 18 18 17 17 18 19 20 21 21 21 20 20 20 19 17 17 19 20 19 19 19 19 20 20 21 22
18 12 20 29 33 32 32 32 31 29 27 25 23 22 21 21 20 19 19 19 20 20 20 22 22 23 23 21 20 18 17 17 19 21 20 19 19 18 19 19 20 21
13 18 27 32 32 33 34 33 32 30 28 25 24 24 24 23 21 20 20 21 21 20 21 21 22 23 23 21 18 17 17 17 18 19 20 19 18 17 19 19 19 20
20 26 31 32 32 33 34 33 32 31 28 27 26 26 25 24 22 22 21 21 20 21 22 22 22 22 21 18 16 16 17 18 18 18 18 17 16 17 19 18 17 18
27 30 31 31 32 33 33 33 32 31 30 29 28 28 26 24 24 23 21 20 19 20 21 20 19 18 16 15 14 15 16 16 15 14 14 15 16 18 18 15 14 14
31 32 32 32 34 35 34 34 33 33 32 31 29 28 26 24 23 22 19 17 17 18 17 15 13 13 13 13 13 13 12 11 10 10 12 14 17 16 14 12 12 13
31 32 33 33 35 37 36 35 34 34 33 32 30 28 25 23 21 18 14 13 14 14 12 11 10 10 11 11 11 10 9 8 8 9 12 13 14 13 13 13 13 14
32 34 36 36 37 38 37 36 35 34 33 32 30 28 25 19 12 8 8 10 12 11 10 9 8 9 8 8 8 9 9 8 8 9 10 12 13 13 14 15 15 13
Wind_Direction
196 199 201 202 203 203 203 205 209 213 217 218 215 218 221 225 236 247 247 231 226 239 249 260 268 266 274 284 284 279 281 289 303 313 307 294 290 285 281 284 286 284
199 200 202 202 199 200 203 204 208 211 209 209 212 212 213 216 222 221 216 218 233 247 253 259 268 276 284 287 282 277 275 276 284 293 296 294 288 279 273 277 279 274
200 200 202 202 198 198 201 202 207 209 206 208 207 200 203 208 211 217 225 235 247 257 257 256 264 276 289 290 283 278 274 273 277 286 290 289 285 275 267 270 275 272
199 201 204 205 203 201 200 202 206 205 204 206 202 200 207 211 215 226 236 245 258 266 262 259 262 265 278 288 280 273 270 268 274 284 285 281 278 272 265 265 270 272
201 203 205 207 206 201 197 199 202 202 204 207 206 208 213 214 223 236 243 251 261 265 260 261 267 265 267 274 275 274 270 268 275 280 277 272 270 268 264 261 263 267
202 204 206 207 205 201 197 199 202 205 209 213 213 214 218 225 236 242 245 253 257 259 260 262 269 272 269 269 270 272 270 271 276 277 271 267 265 265 262 259 260 262
203 205 205 205 204 203 203 202 204 210 216 219 217 218 226 238 246 246 249 257 260 262 267 269 273 275 274 271 269 268 268 271 276 277 273 268 266 264 260 259 261 259
203 204 204 205 205 207 207 205 208 214 219 219 218 221 232 242 247 248 253 260 264 267 270 273 276 276 275 273 270 270 269 271 275 276 275 271 266 263 262 261 260 258
202 203 204 205 205 207 207 208 214 218 217 218 220 226 234 241 247 250 255 262 267 270 271 274 278 281 281 277 275 275 273 272 274 275 276 274 268 266 267 266 261 257
201 201 203 204 206 208 209 213 218 215 211 216 222 232 241 246 250 253 259 267 270 271 273 276 282 286 286 281 278 277 275 272 272 274 276 276 273 271 270 269 264 259
200 201 202 203 205 209 213 218 220 212 208 216 227 241 251 254 254 254 258 261 262 266 272 275 279 282 283 281 278 277 277 275 273 273 275 276 277 275 271 267 267 267
198 199 199 200 203 209 217 223 222 216 217 225 235 245 250 249 248 248 248 249 252 262 270 269 271 280 287 288 285 284 284 281 277 274 274 276 278 277 273 270 270 272
197 196 194 197 203 208 216 223 223 225 230 235 237 236 230 227 230 234 238 242 250 263 270 267 277 292 294 290 287 286 285 282 278 275 273 276 280 279 275 272 272 274
193 193 194 200 206 208 215 221 224 230 237 237 228 216 211 214 223 235 241 243 249 262 272 275 283 289 283 278 282 284 282 280 278 274 272 275 279 278 274 271 272 276
193 198 200 204 207 210 217 222 225 233 236 230 218 213 217 224 239 255 257 256 260 265 271 275 279 280 274 275 286 287 283 281 279 276 274 274 275 275 273 272 274 278
200 206 205 205 208 212 218 222 225 231 231 224 221 225 233 241 255 262 261 269 274 268 268 270 272 274 274 277 285 285 281 280 279 278 276 273 274 275 274 274 275 279
201 203 203 209 215 216 218 221 225 230 230 227 227 231 238 247 254 255 257 268 273 269 269 269 270 272 273 276 281 280 277 276 276 277 276 273 273 274 274 276 276 278
194 194 201 221 224 218 216 220 224 228 229 228 229 234 243 248 248 252 259 266 268 268 270 270 269 269 270 274 277 275 274 275 274 273 272 271 271 272 274 276 276 278
183 189 214 225 222 217 217 220 223 225 226 227 231 238 244 246 248 254 261 264 266 267 270 273 273 271 269 271 274 274 274 273 270 269 267 268 270 273 274 276 278 280
181 211 224 222 220 218 217 219 221 224 225 228 234 239 241 244 249 255 258 261 263 264 268 274 276 272 270 270 270 273 274 271 270 269 266 266 271 274 278 282 285 284
203 220 219 220 221 219 218 219 221 223 224 228 233 237 240 244 248 252 255 257 259 258 261 268 271 270 268 266 266 268 267 267 268 267 265 267 272 280 287 291 291 288
219 216 215 219 219 217 216 216 218 221 224 228 233 236 239 243 247 249 252 254 255 256 258 264 268 268 264 262 265 269 269 270 270 266 263 266 275 288 296 296 294 291
218 217 216 217 215 212 211 213 217 222 226 229 231 234 237 241 245 246 248 253 257 260 264 267 266 262 260 265 275 281 280 278 271 260 260 270 282 292 296 295 295 294
220 223 223 219 215 214 215 217 220 224 228 230 230 232 237 242 245 246 248 255 263 266 265 263 258 257 266 279 287 288 282 273 262 259 269 278 283 287 288 291 295 294
222 227 226 219 215 217 220 222 224 227 229 229 229 233 238 241 242 242 246 255 262 260 254 251 258 270 280 283 282 277 267 260 260 269 275 276 279 283 287 294 299 299
223 227 225 218 217 221 222 223 225 227 227 226 228 231 234 236 236 238 247 251 248 245 249 262 278 287 283 272 265 258 254 256 262 266 271 275 280 287 294 302 306 306